Find Starlink 3828

NORAD ID: 52469 Int'l Des: 2022-049 Owner: SPXS Country: US Constellation: starlink operational
LEOCIRCULAR

現在のビュー

3D地球を読み込み中...

About Starlink 3828

Starlink 3828 (NORAD 52469) is a starlink constellation satellite (v1.5) launched May 6, 2022 by SPXS of US. It operates in LEO, CIRCULAR orbit with a mass of 297.00 kg.

Starlink 3828について

説明を読み込み中...

次回通過

Passes for default location (London). Set your location on the main map for personalized predictions.

高度履歴

Loading altitude history...

軌道要素

1 52469U 22049U 26168.74639786 -.00000029 00000-0 16297-4 0 9997
2 52469 53.1611 329.8538 0001170 87.1805 272.9320 15.08828964227356
Epoch: Jun 17, 2026 • Age: 8 hours

現在のステータス

高度 558.5 km
速度 7.58 km/s
衛星直下点 -51.84°S, 32.05°W
打ち上げ日 May 6, 2022
運用期間 4.1 years
タイプ internet

技術仕様

分類 Payload
質量 297.00 kg
乾燥質量 220.00 kg
総質量 297.00 kg
長さ 0.20 m
直径 2.80 m
スパン 9.00 m
形状 Box + pan
製造者 SPXS
バスタイプ Starlink
フェーズステータス In Orbit
所有者/国 SPXS/US

Most Searched